Regional Weather Roundup
Issued by NWS

Home | Current Version | Previous Version | Graphics & Text | Print | Product List | Glossary On
Versions: 1 2 3 4 5 6 7 8 9 10 11 12 13 14 15 16 17 18 19 20 21 22 23 24 25 26 27 28 29 30 31 32 33 34 35 36 37 38 39 40 41 42 43 44 45 46 47 48 49 50
000
ASUS43 KMKX 201021
RWRWI

WISCONSIN REGIONAL WEATHER ROUNDUP
NATIONAL WEATHER SERVICE MILWAUKEE/SULLIVAN WI
400 AM CST FRI JAN 20 2017

NOTE: "FAIR" INDICATES FEW OR NO CLOUDS BELOW 12,000 FEET WITH NO
SIGNIFICANT WEATHER AND/OR OBSTRUCTIONS TO VISIBILITY.

WIZ001-002-006>008-014>016-023>028-201100-
NORTHWEST WISCONSIN

CITY           SKY/WX    TMP DP  RH WIND       PRES   REMARKS
SUPERIOR ARPT  CLOUDY    32  32 100 CALM      29.67F FOG
ASHLAND        CLOUDY    32  29  88 CALM      29.68
HAYWARD        CLOUDY    35  30  82 CALM      29.66F
SIREN          DRIZZLE   35  34  97 CALM      29.65F
CUMBERLAND     CLOUDY    32  32 100 E3        29.64F FOG
RICE LAKE      DRIZZLE   34  34  98 E3        29.66F
CHETEK         CLOUDY    34  34 100 CALM      29.65F FOG
LADYSMITH      CLOUDY    34  33  96 E5        29.70R FOG     WCI  30
EAU CLAIRE     CLOUDY    35  34  96 E6        29.65F FOG     WCI  30
MENOMONIE        N/A    N/A N/A N/A MISG        N/A
NEW RICHMOND   RAIN      35  35 100 SE3       29.64F
OSCEOLA        CLOUDY    35  35 100 E3        29.67F FOG
$$

WIZ003>005-009-010-017-018-201100-
NORTH CENTRAL WISCONSIN

CITY           SKY/WX    TMP DP  RH WIND       PRES   REMARKS
MANITOWISH WTR CLOUDY    24  24 100 CALM      29.68S FOG
ARBOR VITAE    CLOUDY    29  28  95 CALM      29.68F FOG
WOODRUFF       CLOUDY    29  28  95 CALM      29.68F FOG
RHINELANDER    MOCLDY    26  26 100 E5        29.69F FOG     WCI  20
EAGLE RIVER    CLOUDY    26  26 100 CALM      29.69F FOG
LAND O LAKES   CLOUDY    23  22  97 CALM      29.70F
PHILLIPS       CLOUDY    32  31  98 CALM      29.66F
TOMAHAWK       CLOUDY    30  29  97 CALM      29.69F FOG
MEDFORD        MIX PCPN  32  31  98 E6        29.67S WCI  26
MERRILL        MIX PCPN  32  32 100 CALM        N/A
$$

WIZ029-030-035-036-043>047-201100-
CENTRAL WISCONSIN

CITY           SKY/WX    TMP DP  RH WIND       PRES   REMARKS
WAUSAU         FRZ RAIN  32  31  96 E7        29.68F FOG     WCI  26
MOSINEE        MIX PCPN  32  32 100 E6        29.70S WCI  26
MARSHFIELD     CLOUDY    33  31  92 E9        29.66F FOG     WCI  25
STEVENS POINT  MIX PCPN  31  31 100 CALM      29.70S
WAUPACA        LGT RAIN  34  32  94 CALM      29.72F
WAUTOMA        LGT RAIN  33  32  96 CALM      29.70S FOG
WISC RAPIDS    CLOUDY    34  33  96 SE6       29.70R FOG     WCI  29
CAMP DOUGLAS   MIX PCPN  34  32  93 E5        29.67S FOG     WCI  30
$$

WIZ011>013-019>022-031-037>040-048>050-201100-
NORTHEAST WISCONSIN

CITY           SKY/WX    TMP DP  RH WIND       PRES   REMARKS
ANTIGO         CLOUDY    30  30 100 E3        29.70F FOG
SHAWANO        DRZL/FOG  33  32  96 NE3       29.73F VSB 3/4
OCONTO         NOT AVBL
STURGEON BAY   FOG       33  32  96 CALM      29.74F VSB 1/4
GREEN BAY      FOG       34  34 100 NE6       29.73F VSB 1/4 WCI  29
MANITOWOC      LGT RAIN  34  33  96 N5        29.72F VSB 1/2 WCI  30
APPLETON       DRIZZLE   32  32 100 NE5       29.69F WCI  27
CLINTONVILLE   MIX PCPN  32  32 100 NE5       29.72F VSB 1   WCI  27
OSHKOSH        LGT RAIN  33  33 100 NE5       29.70F FOG     WCI  29
$$

WIZ032>034-041-042-053>061-201100-
SOUTHWEST WISCONSIN

CITY           SKY/WX    TMP DP  RH WIND       PRES   REMARKS
LA CROSSE      NOT AVBL
SPARTA         CLOUDY    33  33 100 E3        29.68S FOG
VIROQUA        CLOUDY    34  34 100 E8        29.64S VSB 1   WCI  27
BOSCOBEL       CLOUDY    36  35  96 NE3       29.66F FOG
PRAIRIE DU CHI FOG       34  33  96 CALM      29.65F VSB 3/4
PLATTEVILLE    CLOUDY    35  35 100 E7        29.64F VSB 1   WCI  29
$$

WIZ056-057-062-063-064-067-068-201100-
SOUTH CENTRAL WISCONSIN

CITY           SKY/WX    TMP DP  RH WIND       PRES   REMARKS
REEDSBURG      DRIZZLE   34  34 100 E7        29.67S WCI  28
BARABOO/DELLS  DRZL/FOG  34  33  98 E5        29.67S VSB 3/4 WCI  30
LONE ROCK      FOG       35  34  96 E5        29.67F VSB 1/2 WCI  31
MINERAL POINT  LGT RAIN  36  36 100 E6        29.64F WCI  31
MADISON        CLOUDY    35  34  96 E7        29.67S FOG     WCI  29
MIDDLETON      CLOUDY    37  37 100 E5        29.67S WCI  33
WATERTOWN      CLOUDY    35  35 100 NE3       29.67S
MONROE         FOG       34  34 100 NE7       29.64S VSB 1/4 WCI  28
JANESVILLE     CLOUDY    36  36 100 E3        29.65S
$$

WIZ051-052-058>065-066-070>072-201100-
SOUTHEAST WISCONSIN

CITY           SKY/WX    TMP DP  RH WIND       PRES   REMARKS
MILWAUKEE      LGT RAIN  38  36  92 E12       29.69F VSB 1   WCI  30
WAUKESHA       LGT RAIN  34  34 100 E8G22     29.66S WCI  27
MILWAUKEE/TIMM LGT RAIN  36  34  93 E8        29.69F WCI  29
RACINE         LGT RAIN  37  36  96 E10       29.69F FOG     WCI  30
KENOSHA        RAIN      37  36  96 E13       29.67F FOG     WCI  29
FOND DU LAC    RAIN      35  32  88 NE8       29.69F FOG     WCI  29
SHEBOYGAN      LGT RAIN  35  34  96 NE7       29.70F FOG     WCI  29
WEST BEND      RAIN      34  34 100 NE7       29.68F WCI  28
JUNEAU         DRIZZLE   34  34  99 NE7       29.68S WCI  28
$$

LSZ147-162-201100-
LAKE SUPERIOR

STATION/POSITION TIME  TEMP    WIND        PRES    WAVE
                       AIR SEA DIR/SP/G            HT/PER
                 (UTC) (F)     (DEG/KT/KT) (MB)    (FT/S)
DEVILS ISLAND    1000   38     270/  2/  5 1005.7F
PORT WING        0940   34      30/  4/  4 1005.1F
SAXON HARBOR     0940   32      CALM  /  3 1005.1F
$$

LMZ867-665-643>646-201100-
LAKE MICHIGAN

STATION/POSITION TIME  TEMP    WIND        PRES    WAVE
                       AIR SEA DIR/SP/G            HT/PER
                 (UTC) (F)     (DEG/KT/KT) (MB)    (FT/S)
NORTHPORT PIER   1000   33      CALM  /  2 1007.1
SISTER BAY       0950   33        CALM       N/A
KEWAUNEE LAKESHO 0954   36      30/  3/  7 1006.2F
SHEBOYGAN LAKESH 1000   35      10/  6/  6 1006.5F
PORT WASHINGTON  0930   36      40/  8/ 11 1007.1S
MILWAUKEE LAKESH 0830   36      70/  7/  7   N/A
KENOSHA   LAKESH 1000   35      60/  5/  6 1005.1
$$

TC  - TEMPERATURE IN CELSIUS
VSB - VISIBILITY IN STATUTE MILES
WCI - WIND CHILL INDEX
HX  - HEAT INDEX





USA.gov is the U.S. government's official web portal to all federal, state and local government web resources and services.